Location: Unspecified
(50.7693°N, 0.0000°E)
Time: 16:12:27
(UTC+00:00)

deb Explorer IX - Pass Details

Date: 21 June 2019
Orbit: 539 x 1112 km, 38.8° (Epoch: 21 July)

Event Time Altitude Azimuth Distance (km) Brightness Sun altitude
Rises 13:42:02 0° 213° (SSW) 3,838 ? 56.5°
Reaches altitude 10° 13:45:31 10° 197° (SSW) 2,934 ? 56.1°
Maximum altitude 13:50:28 20° 154° (SSE) 2,319 ? 55.5°
Drops below altitude 10° 13:55:26 10° 112° (ESE) 2,959 ? 54.9°
Sets 13:58:57 0° 96° (E) 3,881 ? 54.5°
